This is the latest recevied weather packets stored in our database for station/object K5MGY. If no packets are shown the sender has not sent any weather packets the latest 10 day(s).
| Time | Temp. | Humidity | Pressure | Rain* | Wind** | Luminosity | Snow |
|---|---|---|---|---|---|---|---|
| 1788568417 | 35° C | 44% | 1035 hPa | 0 mm | - | 7 W/m² | - |
| 1788568112 | 35° C | 44% | 1035.1 hPa | 0 mm | - | 9 W/m² | - |
| 1788567807 | 35° C | 44% | 1035 hPa | 0 mm | - | 11 W/m² | - |
| 1788567501 | 35° C | 43% | 1034.7 hPa | 0 mm | - | 13 W/m² | - |
| 1788567201 | 35.56° C | 43% | 1035.1 hPa | 0 mm | - | 15 W/m² | - |
| 1788566896 | 35.56° C | 43% | 1034.9 hPa | 0 mm | - | 17 W/m² | - |
| 1788566592 | 35.56° C | 42% | 1034.9 hPa | 0 mm | - | 26 W/m² | - |
| 1788566287 | 35.56° C | 43% | 1034.7 hPa | 0 mm | - | 28 W/m² | - |
| 1788565981 | 36.11° C | 42% | 1034.7 hPa | 0 mm | - | 26 W/m² | - |
| 1788565676 | 36.11° C | 42% | 1035 hPa | 0 mm | - | 26 W/m² | - |
| 1788565371 | 36.11° C | 42% | 1034.8 hPa | 0 mm | - | 25 W/m² | - |
| 1788565067 | 36.11° C | 42% | 1034.8 hPa | 0 mm | - | 25 W/m² | - |
| 1788564764 | 36.11° C | 42% | 1034.8 hPa | 0 mm | - | 30 W/m² | - |
| 1788564460 | 36.11° C | 42% | 1034.7 hPa | 0 mm | - | 28 W/m² | - |
| 1788564156 | 36.67° C | 42% | 1034.8 hPa | 0 mm | - | 29 W/m² | - |
| 1788563851 | 36.67° C | 42% | 1034.8 hPa | 0 mm | - | 28 W/m² | - |
| 1788563547 | 36.67° C | 41% | 1034.8 hPa | 0 mm | - | 29 W/m² | - |
| 1788563246 | 36.67° C | 40% | 1034.7 hPa | 0 mm | - | 40 W/m² | - |
| 1788562941 | 36.67° C | 40% | 1034.8 hPa | 0 mm | - | 54 W/m² | - |
| 1788562640 | 36.67° C | 41% | 1034.8 hPa | 0 mm | - | 61 W/m² | - |
| 1788562334 | 36.11° C | 41% | 1034.7 hPa | 0 mm | - | 63 W/m² | - |
| 1788562033 | 36.11° C | 40% | 1034.6 hPa | 0 mm | - | 55 W/m² | - |
| 1788561729 | 36.67° C | 40% | 1034.6 hPa | 0 mm | - | 48 W/m² | - |
| 1788561428 | 37.22° C | 39% | 1034.8 hPa | 0 mm | - | 37 W/m² | - |
| 1788561123 | 37.22° C | 39% | 1034.9 hPa | 0 mm | - | 46 W/m² | - |
* Rain latest hour (hover to see other rain measurements)
** Current wind speed in m/s (hover to see current wind gust speed)